FENGYUN 1C DEB, 31089

Orbit data source: Space-Track

FENGYUN 1C DEB, 31089 is space debris in SSO originally from a launch on Mon, 10 May 1999 UTC launched from the Taiyaun Space Center, China (TSC). Fengyun 1C debris stems from the Chinese weather satellite Fengyun-1C, which was intentionally destroyed by a Chinese anti-satellite missile in 2007. This event dramatically increased the amount of space debris, with thousands of trackable fragments posing hazards to satellites and human spaceflight. The Fengyun 1C debris cloud has become a focal point in discussions about space sustainability and the need for international regulations to prevent the creation of new debris.

Loading next visibility...
Identifier
31089, 1999-025BGK
Orbit
SSO
Country
Flag of CNCN / PRC
Related business
Manufacturer
Unknown
Mission
Spacecraft
Bus & Motor
Unknown
Mass
Unknown
Launch date (UTC)
1999-05-10 (27 years ago)
Launch vehicle
Unknown
Launch site
Taiyaun Space Center, China (TSC)
Object type
Payload
Rocket body
Debris
Shape & HBR
Unknown shape, 0.1 m
Radar Cross Section
Small (<0.1 m²)

Expand to show TLE details & history
Last TLE update: 17 hours ago

TLE from 17 hours ago
0 FENGYUN 1C DEB
1 31089U 99025BGK 26122.36577094  .00001059  00000-0  77338-3 0  9996
2 31089  98.9675 263.9662 0205632 189.5033 230.4438 13.88574685700116
Epoch: 2026-05-02T08:46Z
TLE epoch observation values (Epoch: 2026-05-02T08:46:42.609Z)
Latitude
57.14595°
Longitude
-102.06559°
Altitude
1,040.733 km
Speed
7.288 km/s
True Right ascension
16h 39m 35s
True Declination
56° 59' 42"
Sunlit
Object was in daylight at epoch
Visualization orbit readout
Latitude
Unknown
Longitude
Unknown
Altitude
Unknown
Speed
Unknown
Apparent Right ascension
Unknown
Apparent Declination
Unknown
Sunlit
N/A
Visualization observer readout
Local Sidereal Time
09:34:06
Azimuth
Unknown
Elevation
Unknown
Doppler factor
Unknown
Orbital elements
Apogee altitude
1,081.137 km
Perigee altitude
780.545 km
Semi-major axis
7,308.978 km
Eccentricity
0.02056
Inclination
98.9675°
RAAN
263.9662°
Arg. of periapsis
189.5033°
True anomaly
228.65661°
Mean anomaly
230.4438°
Eccentric anomaly
229.54727°
Mean motion
3.47343 °/min
Orbital period
103.64 mins
BSTAR
0.00077338
Loading maneuver chart data...
Computing Atmospheric mass density...

Documentation

Showing up to 5 results
|